Location: Home
(42.5358°N, 72.7383°W)
Time: 05:58:33
(UTC-05:00)

A-11 Canister half - Pass Details

Date: 01 December 2021
Orbit: 1524 x 1684 km, 47.3° (Epoch: 17 January)

Event Time Altitude Azimuth Distance (km) Brightness Sun altitude
Exits shadow 05:18:10 25° 287° (WNW) 2,899 9.8 -18.5°
Maximum altitude 05:24:42 68° 4° (N) 1,751 9.2 -17.3°
Drops below altitude 10° 05:34:28 10° 87° (E) 3,819 12.3 -15.6°
Sets 05:37:34 0° 90° (E) 4,782 13.1 -15.0°
